Home > Weather > Philipsburg > Past weeks

Flag for Sint Maarten Past Weather in Philipsburg, Sint Maarten — Yesterday and Last 2 Weeks

Now
82 °F

Passing clouds.


Feels Like: 89 °F
Forecast: 80 / 85 °F
Wind: 8 mph from East

Location: Juliana Airport - Saint Maarten

Current Time: Jun 26, 2016 at 12:41:05 AM

Latest Report: Jun 26, 2016 at 12:00 AM


Visibility: N/A

Pressure: 30.04 "Hg

Humidity: 79%

Dew Point: 75 °F

Location of PhilipsburgLocation

Past Weather in Philipsburg — Graph

°F

Philipsburg Temperature Yesterday

Maximum temperature yesterday: 86 °F (at 10:00 AM)
Minimum temperature yesterday: 81 °F (at 5:00 AM)
Average temperature yesterday: 84 °F

High & Low Weather Summary for the Past Weeks

 TemperatureHumidityPressure
High88 °F (Jun 14, 11:00 AM)89% (Jun 20, 12:00 AM)30.18 "Hg (Jun 20, 12:00 AM)
Low79 °F (Jun 19, 9:00 PM)55% (Jun 15, 2:00 PM)30.01 "Hg (Jun 17, 4:00 PM)
Average84 °F75%30.08 "Hg
* Reported Jun 10 11:00 PM — Jun 25 11:00 PM, Philipsburg, Weather by CustomWeather, © 2016

Note: Actual official high and low records may vary slightly from our data, if they occured in-between our weather recording intervals... More about our weather records

Advertising

Philipsburg Weather History for the Previous 24 Hours

Scroll right to see more
 ConditionsComfort  
Time TempWeatherWind HumidityBarometerVisibility
11:00 PM
Sat, Jun 25
82 °FPassing clouds.9 mph79%30.07 "HgN/A
10:00 PM82 °FPassing clouds.9 mph79%30.07 "HgN/A
9:00 PM82 °FPassing clouds.10 mph74%30.04 "HgN/A
8:00 PM82 °FPassing clouds.8 mph74%30.04 "HgN/A
7:00 PM82 °FPassing clouds.10 mph79%30.04 "HgN/A
6:00 PM84 °FPassing clouds.9 mph74%30.01 "HgN/A
5:00 PM84 °FPassing clouds.13 mph74%30.01 "HgN/A
4:00 PM84 °FPassing clouds.12 mph74%30.01 "HgN/A
3:00 PM84 °FScattered clouds.15 mph74%30.01 "HgN/A
2:00 PM86 °FWarm.14 mph70%30.01 "Hg0 mi
1:00 PM86 °FPartly sunny.12 mph66%30.04 "HgN/A
12:00 PM86 °FScattered clouds.12 mph66%30.04 "HgN/A
11:00 AM86 °FPartly sunny.13 mph70%30.04 "HgN/A
10:00 AM86 °FScattered clouds.16 mph70%30.04 "HgN/A
9:00 AM84 °FScattered clouds.14 mph74%30.04 "HgN/A
8:00 AM84 °FPartly sunny.12 mph74%30.04 "HgN/A
7:00 AM82 °FScattered clouds.10 mph79%30.04 "HgN/A
6:00 AM82 °FPartly sunny.9 mph79%30.04 "HgN/A
5:00 AM81 °FPassing clouds.12 mph84%30.01 "HgN/A
4:00 AM82 °FPassing clouds.10 mph79%30.01 "HgN/A
3:00 AM82 °FPassing clouds.10 mph79%30.01 "HgN/A
2:00 AM82 °FPassing clouds.8 mph79%30.01 "HgN/A
1:00 AM82 °FPassing clouds.8 mph79%30.04 "HgN/A
12:00 AM82 °FPassing clouds.10 mph79%30.07 "HgN/A
Weather by CustomWeather, © 2016

See weather overviewHow to use our weather pages